www.pogodaiklimat.ru

Погода и климат >> Архив погоды >> Россия >> Коми >> Елецкая


ПОГОДА в Елецкой

  • Прогноз погоды в Елецкой
  • Монитор погоды в Елецкой

АРХИВ ПОГОДЫ в Елецкой

Время (UTC), дата Ветер
(напр.,м/с)
 
Видим.   Явления Облачность Т
(С)
Тd
(С)
f
(%)
Тe
(С)
Тes
(С)
Комфортность P
(гПа)
Po
(гПа)
Тmin
(С)
Tmax
(С)
R
(мм)
R24
(мм)
S
(см)
09 18.06 З 3 20 км {ливн. осадки} 9/9 700 м
[Cb cap]
+5.3 +1.1 74 +2 +3 997.3 983.6
12 18.06 З 4 4000 м слаб. ливневой дождь 10/10 660 м
[Cb cap]
+2.6 +0.9 89 -2 -2 998.6 984.8
15 18.06 ЮЗ 5 4000 м слаб. ливневой дождь 9/9 630 м
[Cb cap]
+2.8 +1.6 92 -3 -3 998.6 984.8 +5.6 2
18 18.06 З 3 4000 м слаб. ливневой дождь 10/10 570 м
[Cb cap]
+1.6 +0.7 94 -3 -3 998.8 984.9
21 18.06 З 2 н/о н/о +0.8 -0.1 94 -3 -3 999.2 985.2
00 19.06 З 3 н/о н/о +0.6 -0.4 93 -4 -4 1000.0 986.0
03 19.06 З 4 10 км слаб. ливневой снег 10/10 480 м
[Cb cap]
+1.4 +0.1 91 -4 -4 1000.5 986.5 +0.1 2 0
06 19.06 З 4 10 км слаб. ливневой снег 10/10 500 м
[Cb cap]
+2.6 +0.6 87 -2 -2 1001.1 987.2
09 19.06 СЗ 2 4000 м слаб. ливневой снег 10/10 500 м
[Cb cap]
+2.2 +0.9 91 -1 -1 1002.6 988.7
12 19.06 З 3 20 км {ливн. осадки} 10/10 500 м
[Cb cap Ac trans]
+3.6 +0.5 80 -0 -0 1003.8 990.0
15 19.06 З 3 10 км слаб. ливневой дождь 9/8 540 м
[Cb cap Ac trans]
+3.2 +1.6 89 -1 -1 1004.7 990.8 +4.1 2
18 19.06 ЮЗ 2 20 км {ливн. осадки} 10/10 570 м
[Cb cap]
+2.4 +0.4 87 -1 -1 1005.3 991.3
21 19.06 З 2 н/о н/о +1.4 +0.6 94 -2 -2 1005.3 991.2
00 20.06 З 3 н/о н/о +2.0 -0.3 85 -2 -2 1005.6 991.6
03 20.06 ЮЗ 4 20 км 10/6 700 м
[Sc Ac trans]
+3.3 +0.3 81 -1 -1 1005.0 991.1 +1.2 0.3 0
06 20.06 ЮЗ 5 20 км 10/6 720 м
[Sc Ac trans]
+5.2 +0.3 71 +1 +2 1004.9 991.1
09 20.06 ЮЗ 5 20 км 10/6 800 м
[Sc Ac trans]
+8.0 +0.9 61 +5 +6 1005.0 991.3
12 20.06 З 2 50 км 9/5 600 м
[Sc Ac trans]
+8.4 +0.2 56 +7 +9 1005.2 991.5
15 20.06 ЮВ 1 50 км 10/8 800 м
[Sc Ac trans]
+7.5 +1.4 65 +7 +7 1005.4 991.7 +9.7
18 20.06 СВ 1 20 км 10/8 570 м
[Cb cap Ac As]
+6.2 +2.4 77 +5 +5 1005.6 991.8
21 20.06 С 4 н/о н/о +2.8 +1.2 89 -2 -2 1006.6 992.7
00 21.06 З 2 н/о н/о +2.8 +0.5 85 -0 -0 1007.6 993.6
03 21.06 З 1 50 км 8/6 600 м
[Sc Ac trans]
+4.7 -0.8 67 +4 +5 1007.5 993.6 +2.2 0
06 21.06 ЮЗ 2 50 км 9/8 800 м
[Sc Ac trans]
+7.5 -0.7 56 +6 +7 1007.3 993.5
09 21.06 З 4 50 км 9/6 750 м
[Sc Ac trans]
+8.4 -0.4 54 +6 +7 1007.2 993.5
12 21.06 З 3 50 км 9/8 600 м
[Cb cap]
+9.1 +0.5 55 +7 +8 1007.6 993.9
15 21.06 З 5-10
{11}
20 км {ливн. осадки} 6/4 660 м
[Cb cap Ac trans]
+5.1 +0.9 74 +1 +1 1009.0 995.1 +9.6 0.0
18 21.06 З 3
{10}
4000 м слаб. морось 10/10 300 м
[St]
+3.1 +1.9 92 -1 -1 1008.8 994.8
21 21.06 З 3 н/о н/о +2.4 +1.6 94 -2 -2 1008.5 994.5
00 22.06 З 3 н/о н/о +2.6 +2.4 99 -2 -2 1008.5 994.5
03 22.06 З 3 4000 м слаб. ливневой дождь 10/10 450 м
[Cb cap]
+2.9 +1.9 93 -1 -1 1009.1 995.1 +2.3 0.7 0
06 22.06 З 4 10 км слаб. ливневой дождь {морось} 9/8 480 м
[Cb cap Ac trans]
+4.6 +2.8 88 0 +1 1009.3 995.4
09 22.06 З 5 50 км {ливн. осадки} 8/8 630 м
[Cu Sc Ac trans]
+7.9 +2.6 69 +4 +6 1009.1 995.4
12 22.06 СЗ 2 50 км {ливн. осадки} 4/1 600 м
[Cu hum Ci fib]
+10.7 +3.8 62 +10 +15 1009.0 995.4
15 22.06 В 4 50 км 3/0
[Ci fib]
+9.2 +3.3 67 +7 +7 1008.5 994.8 +10.8 0.3
18 22.06 СВ 3 50 км 3/0
[Ac trans Ci fib]
+4.9 +1.6 79 +2 +2 1008.0 994.1
21 22.06 С 2 н/о н/о +1.6 -0.2 88 -2 -2 1007.0 993.0
00 23.06 В 1 н/о н/о +3.5 +1.0 84 +2 +2 1006.8 992.9
03 23.06 В 2 50 км 6/0
[Ci fib]
+9.3 +3.0 65 +8 +13 1005.6 992.0 +0.7 0
06 23.06 В 2 50 км 9/0
[Ac trans Ci]
+11.6 +1.4 50 +11 +18 1004.3 990.8
09 23.06 СВ 3 50 км 9/0
[Ac trans Ci]
+12.8 +2.3 49 +12 +18 1003.1 989.7
12 23.06 СВ 4 50 км 10/3 600 м
[Cu hum Ac trans Ci]
+11.2 +1.4 51 +9 +11 1001.8 988.3
15 23.06 СВ 4 10 км слаб. дождь 10/8 570 м
[Sc As op]
+8.3 +5.0 80 +5 +5 1001.0 987.4 +14.1 0.3
18 23.06 В 4 4000 м слаб. дождь 10/8 570 м
[Sc As op]
+6.8 +5.7 93 +3 +3 999.0 985.4
21 23.06 Ю 1 н/о н/о +7.0 +6.7 98 +6 +6 997.8 984.2
00 24.06 СЗ 2 н/о н/о +5.6 +4.8 95 +3 +3 998.8 985.1
03 24.06 С 4 4000 м слаб. ливневой дождь 10/10 480 м
[Cb cap]
+4.5 +3.1 91 0 0 1000.5 986.7 +6.6 6
06 24.06 З 4 10 км {ливн. осадки} 10/10 500 м
[Cb cap]
+4.2 +2.7 90 -0 -0 1003.1 989.3
09 24.06 З 4 4000 м слаб. ливневой дождь 10/10 570 м
[Cb cap]
+4.3 +2.8 90 -0 -0 1005.5 991.7
12 24.06 З 4 4000 м слаб. ливневой дождь 10/10 600 м
[Cb cap]
+4.4 +2.5 87 0 0 1008.0 994.1
15 24.06 З 3 4000 м слаб. ливневой дождь 8/8 570 м
[Cb cap]
+4.8 +2.5 85 +1 +1 1009.8 995.9 +5.7 4
18 24.06 СЗ 2 50 км {ливн. осадки} 10/10 630 м
[Sc]
+2.6 -0.4 81 -0 -0 1011.5 997.4
21 24.06 ЮЗ 2 н/о н/о +1.4 -0.9 85 -2 -2 1012.0 997.9
00 25.06 З 2 н/о н/о +2.0 +1.2 94 -1 -1 1012.1 998.1
03 25.06 З 3 20 км 10/10 400 м
[Cb cap]
+3.7 +1.5 86 -0 -0 1012.9 998.9 +1.4 0.7 0
06 25.06 З 4 20 км в посл. час ливневой дождь 10/10 540 м
[Cb cap]
+5.3 +2.5 82 +1 +1 1013.4 999.5

 

Местоположение метеостанции Елецкая (Коми, Россия): широта 67.05 долгота 64.07 высота над уровнем моря 115 м.

В архиве по умолчанию представлена погода в Елецкой за последнюю неделю. Архивные данные за месяц целиком и за предыдущие месяцы, начиная с января 2011 года, Вы можете получить, выбрав интересующий диапазон дат из раскрывающегося списка и нажав кнопку "Ввод!".


*Определитесь, кто Вы:
робот инопланетянин человек

Внимание! Время в таблицах - всемирное. Для получения местного времени необходимо прибавить поправку, которая равна 3 ч.

Смотрите также архив погоды в соседних городах и на ближайших метеорологических станциях:

Погода в Воркуте (Коми, Россия) (48 км)
Погода в Харпе (Ямало-Ненецкий АО, Россия) (80 км)
Погода в Салехарде (Ямало-Ненецкий АО, Россия) (128 км)
Погода в Питляре (Ямало-Ненецкий АО, Россия) (159 км)
Погода в Петруни (Коми, Россия) (160 км)
Погода в Белоярске (Ямало-Ненецкий АО, Россия) (178 км)
Погода в Мужах (Ямало-Ненецкий АО, Россия) (188 км)
Погода в Харуте (Ненецкий АО, Россия) (199 км)
Погода в Полуе (Ямало-Ненецкий АО, Россия) (233 км)
Погода в Усть-Каре (Ненецкий АО, Россия) (247 км)

Пояснения к столбцам:

Ветер - указаны скорость ветра в м/с - средняя за 10 мин, порывы в срок и между сроками (в фигурных скобках) и направление, откуда дует ветер: С - северный, СВ - северо-восточный, В - восточный, ЮВ - юго-восточный, Ю - южный, ЮЗ - юго-западный, З - западный, СЗ - северо-западный.
Видимость - горизонтальная дальность видимости в метрах или километрах. При видимости от 1 до 10 км при отсутствии осадков обычно наблюдается дымка, при ухудшении видимости до 1 км и менее - туман. В сухую погоду видимость может ухудшаться дымом, пылью или мглою.
Явления - указаны атмосферные явления, наблюдавшиеся в срок или в последний час перед сроком; фигурными скобками обозначены явления, наблюдавшиеся между сроками (за 1-3 часа до срока); квадратными скобками обозначены град или гололедные отложения с указанием их диаметра в мм.
Облачность - указаны через наклонную черту общая и нижняя облачность в баллах и высота нижней границы облаков в метрах; квадратными скобками обозначены формы облаков: Ci - перистые, Cs - перисто-слоистые, Cc - перисто-кучевые, Ac - высококучевые, As - высокослоистые, Sc - слоисто-кучевые, Ns - слоисто-дождевые, Cu - кучевые, Cb - кучево-дождевые. Подробнее классификацию облаков см. в Атласе облаков (PDF).
T - Температура воздуха - температура, измеренная на высоте 2 м над землей.
Td - Температура точки росы - температура, при понижении до которой содержащийся в воздухе водяной пар достигнет насыщения.
f - Относительная влажность воздуха - влажноcть воздуха, измеренная на высоте 2 м над землей.
Te - Эффективная температура - температура, которую ощущает одетый по сезону человек в тени. Характеристика душности погоды. При расчете учитывается влияние влажности воздуха и скорости ветра на теплоощущения человека.
Tes - Эффективная температура на солнце - температура, которую ощущает человек, с поправкой на солнечный нагрев. Характеристика знойности погоды. Зависит от высоты солнца над горизонтом, облачности и скорости ветра. Ночью, в пасмурную погоду, а также при ветре 12 м/с и более поправка равна нулю.
P - Атмосферное давление - приведенное к уровню моря атмосферное давление.
Po - Атмосферное давление - измеренное на уровне метеостанции атмосферное давление.
Tmin - Минимальная температура - минимум температуры воздуха на высоте 2 м над землей.
Tmax - Максимальная температура - максимум температуры воздуха на высоте 2 м над землей.
R - Количество осадков - Количество выпавших осадков за период времени, мм. При наведении курсора мыши на число - период времени, за который выпало указанное количество осадков.
R24 - Количество осадков - Количество выпавших осадков за 24 часа, мм.
S - Снежный покров - Высота снежного покрова, см. При наведении курсора мыши на число - состояние снежного покрова и степень покрытия местности в баллах.